STARLINK-32869, 62859

Orbit data source: Space-Track

STARLINK-32869, 62859 is a payload satellite owned by SpaceX/Seattle (US) in LEO that was launched on Sat, 01 Feb 2025 UTC via an FALCON 9 launch vehicle from the Air Force Western Test Range (AFWTR). Payload-class satellites include a variety of spacecraft equipped with specific instruments for various scientific and technological missions. These include communications satellites like Starlink; space stations such as the ISS; scientific satellites like the Hubble; Earth observation satellites from companies like Planet Labs, Umbra, and HawkEye 360; GPS; miniature CubeSats for education and research; and military/defense satellites.

Loading next visibility...
Identifier
62859, 2025-022F
Orbit
LEO
Country
Flag of USUS
Related business
Manufacturer
SpaceX/Seattle
Mission
Operational Commercial Communications
Bus & Motor
STARLINK V2M, Unknown motor
Mass
730 kg wet, ~700 kg dry
Launch date (UTC)
2025-02-01 (8 months ago)
Launch vehicle
FALCON 9
Launch site
Air Force Western Test Range (AFWTR)
Object type
Payload
Rocket body
Debris
Shape & HBR
Box + 2 Pan, 14.5 m
Radar Cross Section
33.884 m², Large (>1 m²)

Expand to show TLE details & history
Last TLE update: 1 day ago

TLE from 1 day ago
0 STARLINK-32869
1 62859U 25022F   25260.28913875  .00027569  00000-0  93928-3 0  9992
2 62859  53.1578 214.8930 0001093  73.9822 286.1299 15.30206773 35359
Epoch: 2025-09-17T06:56Z
TLE epoch observation values (Epoch: 2025-09-17T06:56:21.588Z)
Latitude
-0°
Longitude
114.33582°
Altitude
475.886 km
Speed
7.629 km/s
True Right ascension
14h 19m 34s
True Declination
0° 00' 00"
Sunlit
Object was in daylight at epoch
Visualization orbit readout
Latitude
Unknown
Longitude
Unknown
Altitude
Unknown
Speed
Unknown
Apparent Right ascension
Unknown
Apparent Declination
Unknown
Sunlit
N/A
Visualization observer readout
Local Sidereal Time
03:39:19
Azimuth
Unknown
Elevation
Unknown
Doppler factor
Unknown
Orbital elements
Apogee altitude
476.201 km
Perigee altitude
474.703 km
Semi-major axis
6,853.589 km
Eccentricity
0.00011
Inclination
53.1578°
RAAN
214.893°
Arg. of periapsis
73.9822°
True anomaly
286.11787°
Mean anomaly
286.1299°
Eccentric anomaly
286.12388°
Mean motion
3.82531 °/min
Orbital period
94.11 mins
BSTAR
0.00093928
Loading maneuver chart data...
Computing Atmospheric mass density...
Loading historical data...
Loading historical data...
Loading historical data...
Loading historical data...
Loading historical data...
Loading historical data...
Loading historical data...

Documentation

Showing up to 5 results
|